Home > Weather > Saint George's > Past weeks

Flag for Grenada Past Weather in Saint George's, Grenada — Yesterday and Last 2 Weeks

Now
88 °F

Scattered clouds.


Feels Like: 100 °F
Forecast: 77 / 83 °F
Wind: 18 mph from East

Location: Point Salines Airport

Current Time: Jul 28, 2016 at 12:32:22 PM

Latest Report: Jul 28, 2016 at 12:00 PM


Visibility: N/A

Pressure: 29.95 "Hg

Humidity: 70%

Dew Point: 77 °F

Location of Saint George'sLocation

Past Weather in Saint George's — Graph

°F

Saint George's Temperature Yesterday

Maximum temperature yesterday: 86 °F (at 9:00 AM)
Minimum temperature yesterday: 81 °F (at 6:00 AM)
Average temperature yesterday: 84 °F

High & Low Weather Summary for the Past Weeks

 TemperatureHumidityPressure
High88 °F (Jul 13, 1:00 PM)100% (Jul 14, 5:00 AM)30.01 "Hg (Jul 14, 5:00 AM)
Low75 °F (Jul 23, 6:00 AM)66% (Jul 17, 10:00 AM)29.86 "Hg (Jul 15, 2:00 AM)
Average82 °F83%29.93 "Hg
* Reported Jul 13 1:00 PM — Jul 28 11:00 AM, Saint George's, Weather by CustomWeather, © 2016

Note: Actual official high and low records may vary slightly from our data, if they occured in-between our weather recording intervals... More about our weather records

Advertising

Saint George's Weather History for the Previous 24 Hours

Scroll right to see more
 ConditionsComfort  
Time TempWeatherWind HumidityBarometerVisibility
11:00 AM
Thu, Jul 28
88 °FPassing clouds.21 mph70%29.95 "HgN/A
10:00 AM86 °FPassing clouds.21 mph75%29.95 "HgN/A
9:00 AM84 °FPassing clouds.16 mph84%29.95 "HgN/A
8:00 AM84 °FPassing clouds.12 mph79%29.95 "HgN/A
7:00 AM81 °FPassing clouds.12 mph89%29.95 "HgN/A
6:00 AM79 °FPassing clouds.9 mph94%29.95 "HgN/A
5:00 AM79 °FPassing clouds.9 mph94%29.92 "HgN/A
4:00 AM81 °FPassing clouds.12 mph89%29.92 "HgN/A
2:00 AM79 °FPassing clouds.9 mph94%29.92 "HgN/A
1:00 AM79 °FSprinkles. Passing clouds.14 mph94%29.92 "HgN/A
12:00 AM81 °FPassing clouds.9 mph89%29.95 "HgN/A
11:00 PM
Wed, Jul 27
81 °FPassing clouds.9 mph89%29.95 "HgN/A
10:00 PM81 °FPassing clouds.7 mph89%29.95 "HgN/A
9:00 PM82 °FPassing clouds.7 mph84%29.95 "HgN/A
8:00 PM82 °FPassing clouds.13 mph84%29.92 "HgN/A
7:00 PM82 °FPassing clouds.14 mph84%29.92 "HgN/A
6:00 PM84 °FPassing clouds.17 mph79%29.89 "HgN/A
5:00 PM86 °FPassing clouds.15 mph79%29.89 "HgN/A
4:00 PM86 °FPassing clouds.20 mph79%29.89 "HgN/A
3:00 PM86 °FPassing clouds.16 mph84%29.92 "HgN/A
1:00 PM86 °FPassing clouds.21 mph79%29.92 "HgN/A
12:00 PM86 °FPassing clouds.18 mph84%29.95 "HgN/A
Weather by CustomWeather, © 2016

See weather overviewHow to use our weather pages